#datint,netname,site,siteID,timestamp,airt_abovecanopy_avg,airt_avg,airt_belowcanopy_avg,dpt_f,rh,soil_vwc,soil_f,Solar_rad,winds_mph_avg,windd_deg,winds_mph_max,leafwetns,tot_10rain_mm,tot_60rain_mm,tot_dayrain_mm,leaft_1,budt_1
10min,FGNet,alpine,42.04,09JAN2021:00:00:00,28.6,28.3,27.9,19.2,67,17.99,29.7374,0,2.0,59.93,3.1,0,0.00,0.00,0.00,27.239,27.9878
10min,FGNet,alpine,42.04,09JAN2021:00:10:00,29.1,28.3,27.9,19.4,67,18.01,29.7716,0,1.6,86.2,3.0,0,0.00,0.00,0.00,27.5144,28.0652
10min,FGNet,alpine,42.04,09JAN2021:00:20:00,29.4,28.4,28.1,19.5,66,18,29.7554,0,1.1,53.51,2.8,0,0.00,0.00,0.00,27.0806,27.4946
10min,FGNet,alpine,42.04,09JAN2021:00:30:00,28.6,28.0,27.8,19.7,69,18.02,29.8274,0,1.1,124.5,2.8,0,0.00,0.00,0.00,26.735,27.6422
10min,FGNet,alpine,42.04,09JAN2021:00:40:00,28.7,28.3,27.9,19.6,69,18.03,29.7626,0,2.1,65.79,3.5,0,0.00,0.00,0.00,27.5918,28.3406
10min,FGNet,alpine,42.04,09JAN2021:00:50:00,29.7,29.2,28.3,19.4,65,18.04,29.7914,0,1.2,122,3.1,0,0.00,0.00,0.00,27.041,28.1228
10min,FGNet,alpine,42.04,09JAN2021:01:00:00,29.8,29.4,29.0,19.5,65,18.05,29.723,0,2.7,66.74,3.9,0,0.00,0.00,0.00,27.1778,28.2614
10min,FGNet,alpine,42.04,09JAN2021:01:10:00,29.5,28.3,27.6,19.5,66,18.04,29.759,0,2.7,312.7,4.0,0,0.00,0.00,0.00,26.1518,27.8276
10min,FGNet,alpine,42.04,09JAN2021:01:20:00,28.8,27.8,27.1,19.5,68,18.04,29.822,0,1.6,185.3,2.8,0,0.00,0.00,0.00,25.1438,26.3588
10min,FGNet,alpine,42.04,09JAN2021:01:30:00,28.3,27.4,27.1,19.5,69,17.96,29.8796,0,1.9,210,2.4,0,0.00,0.00,0.00,24.845,26.5082
10min,FGNet,alpine,42.04,09JAN2021:01:40:00,28.2,27.2,26.8,19.5,70,18.05,29.7464,0,0.7,177.7,2.1,0,0.00,0.00,0.00,24.2492,25.6982
10min,FGNet,alpine,42.04,09JAN2021:01:50:00,28.1,27.4,26.9,19.7,70,17.98,29.7734,0,1.6,71.5,3.3,0,0.00,0.00,0.00,24.6182,25.7486
10min,FGNet,alpine,42.04,09JAN2021:02:00:00,28.0,26.9,26.3,19.7,71,18.04,29.7644,0,0.7,227.3,3.9,0,0.00,0.00,0.00,25.007,26.1158
10min,FGNet,alpine,42.04,09JAN2021:02:10:00,27.5,26.8,26.5,20.0,73,17.99,29.7914,0,1.9,66.93,3.1,0,0.00,0.00,0.00,24.3356,25.6838
10min,FGNet,alpine,42.04,09JAN2021:02:20:00,27.2,26.5,26.1,19.7,73,18.02,29.849,0,1.0,120.3,3.0,0,0.00,0.00,0.00,23.1818,24.7046
10min,FGNet,alpine,42.04,09JAN2021:02:30:00,27.3,26.7,26.4,20.0,74,18.02,29.7644,0,1.6,52.07,3.7,0,0.00,0.00,0.00,22.5428,23.6012
10min,FGNet,alpine,42.04,09JAN2021:02:40:00,26.9,26.0,25.8,19.9,75,18.01,29.7176,0,1.6,44.5,3.9,0,0.00,0.00,0.00,23.7416,25.2122
10min,FGNet,alpine,42.04,09JAN2021:02:50:00,26.7,26.2,25.9,20.3,76,18,29.7824,0,2.7,51.92,4.0,0,0.00,0.00,0.00,24.3392,25.529
10min,FGNet,alpine,42.04,09JAN2021:03:00:00,26.8,25.8,25.4,20.2,76,17.97,29.8184,0,1.3,164.2,4.0,0,0.00,0.00,0.00,22.6238,24.5966
10min,FGNet,alpine,42.04,09JAN2021:03:10:00,26.4,25.7,25.3,20.2,77,17.96,29.7374,0,1.6,69.45,3.5,0,0.00,0.00,0.00,21.9128,22.8038
10min,FGNet,alpine,42.04,09JAN2021:03:20:00,25.9,25.2,24.8,19.7,77,17.99,29.8256,0,1.8,78.48,3.3,0,0.00,0.00,0.00,23.5922,24.7964
10min,FGNet,alpine,42.04,09JAN2021:03:30:00,25.8,25.1,24.6,19.5,77,17.97,29.8256,0,2.4,140.3,4.4,0,0.00,0.00,0.00,22.0424,24.1592
10min,FGNet,alpine,42.04,09JAN2021:03:40:00,25.5,24.9,24.3,19.3,77,18,29.7734,0,1.8,72.03,2.8,0,0.00,0.00,0.00,22.5248,24.0404
10min,FGNet,alpine,42.04,09JAN2021:03:50:00,25.2,24.5,24.1,19.0,77,17.98,29.8076,0,2.2,58.54,3.7,0,0.00,0.00,0.00,22.8236,24.4184
10min,FGNet,alpine,42.04,09JAN2021:04:00:00,25.0,24.2,23.8,18.9,77,17.98,29.8004,0,1.5,119.3,3.9,0,0.00,0.00,0.00,19.9976,22.3844
10min,FGNet,alpine,42.04,09JAN2021:04:10:00,24.3,23.2,23.0,18.5,78,18.01,29.849,0,0.0,70.07,0.0,0,0.00,0.00,0.00,18.5666,21.0002
10min,FGNet,alpine,42.04,09JAN2021:04:20:00,23.5,22.6,22.5,17.9,79,17.99,29.714,0,0.0,49.68,0.0,0,0.00,0.00,0.00,20.075,22.0496
10min,FGNet,alpine,42.04,09JAN2021:04:30:00,23.7,23.1,22.8,18.5,80,17.97,29.7644,0,1.4,54.12,2.8,0,0.00,0.00,0.00,20.2784,21.488
10min,FGNet,alpine,42.04,09JAN2021:04:40:00,23.4,22.9,22.5,18.2,80,18,29.75,0,2.0,52.94,3.1,0,0.00,0.00,0.00,20.9048,22.1018
10min,FGNet,alpine,42.04,09JAN2021:04:50:00,23.6,23.4,23.1,18.3,80,18.02,29.7446,0,3.5,63.5,4.6,0,0.00,0.00,0.00,22.9334,23.612
10min,FGNet,alpine,42.04,09JAN2021:05:00:00,23.9,23.4,23.1,18.3,79,17.98,29.7464,0,1.8,58.91,3.3,0,0.00,0.00,0.00,21.1388,22.0334
10min,FGNet,alpine,42.04,09JAN2021:05:10:00,23.7,23.2,22.8,18.3,80,18.05,29.7536,0,0.3,67.55,1.7,0,0.00,0.00,0.00,21.0074,22.1738
10min,FGNet,alpine,42.04,09JAN2021:05:20:00,23.4,22.6,22.3,18.2,80,18.07,29.759,0,0.4,115.1,1.7,0,0.00,0.00,0.00,19.643,21.371
10min,FGNet,alpine,42.04,09JAN2021:05:30:00,23.1,22.5,22.4,18.3,82,18.01,29.8436,0,0.6,66.38,2.8,0,0.00,0.00,0.00,20.7446,22.0424
10min,FGNet,alpine,42.04,09JAN2021:05:40:00,23.4,22.9,22.6,18.5,81,17.96,29.768,0,2.0,57.3,2.8,0,0.00,0.00,0.00,18.9212,20.3828
10min,FGNet,alpine,42.04,09JAN2021:05:50:00,22.9,22.3,22.1,18.3,82,17.98,29.6564,0,1.7,51.16,3.0,0,0.00,0.00,0.00,18.9626,20.5052
10min,FGNet,alpine,42.04,09JAN2021:06:00:00,22.6,22.1,21.7,18.2,83,18,29.7194,0,0.8,61.12,2.6,0,0.00,0.00,0.00,20.3252,21.8966
10min,FGNet,alpine,42.04,09JAN2021:06:10:00,23.1,22.8,22.5,18.7,83,17.98,29.642,0,2.5,68.29,3.7,0,0.00,0.00,0.00,19.2308,20.1956
10min,FGNet,alpine,42.04,09JAN2021:06:20:00,22.5,21.5,21.2,17.9,82,17.97,29.7266,0,1.2,140.8,2.8,0,0.00,0.00,0.00,17.42,19.436
10min,FGNet,alpine,42.04,09JAN2021:06:30:00,22.1,21.0,20.6,17.8,83,17.97,29.642,0,0.0,241.4,0.0,0,0.00,0.00,0.00,16.826,18.3344
10min,FGNet,alpine,42.04,09JAN2021:06:40:00,21.8,20.7,20.5,17.7,84,17.96,29.678,0,1.2,224.3,2.8,0,0.00,0.00,0.00,18.4586,20.3684
10min,FGNet,alpine,42.04,09JAN2021:06:50:00,22.3,21.7,21.3,18.3,84,17.99,29.6906,0,2.5,97.9,4.0,0,0.00,0.00,0.00,18.806,19.904
10min,FGNet,alpine,42.04,09JAN2021:07:00:00,22.3,21.3,21.0,18.2,84,17.96,29.669,0,0.9,55.02,3.0,0,0.00,0.00,0.00,16.79,19.049
10min,FGNet,alpine,42.04,09JAN2021:07:10:00,22.0,21.3,20.9,18.3,85,17.96,29.7266,0,2.0,67.31,3.5,0,0.00,0.00,0.00,19.9346,21.056
10min,FGNet,alpine,42.04,09JAN2021:07:20:00,22.2,21.1,20.7,18.4,85,17.97,29.6996,0,1.3,91.2,3.5,0,0.00,0.00,0.00,18.3758,19.823
10min,FGNet,alpine,42.04,09JAN2021:07:30:00,21.6,20.7,20.3,17.9,85,17.93,29.6384,0,0.7,80.4,2.3,0,0.00,0.00,0.00,17.294,19.0094
10min,FGNet,alpine,42.04,09JAN2021:07:40:00,21.6,20.7,20.3,18.2,87,18.01,29.6456,1,1.4,167.1,3.5,0,0.00,0.00,0.00,19.0706,20.1272
10min,FGNet,alpine,42.04,09JAN2021:07:50:00,21.2,20.4,20.0,17.4,85,18.02,29.6654,2,1.8,68.85,3.0,0,0.00,0.00,0.00,18.3344,19.6196
10min,FGNet,alpine,42.04,09JAN2021:08:00:00,20.6,19.7,19.2,17.2,86,18.01,29.6366,5,1.0,159.9,3.0,0,0.00,0.00,0.00,17.6792,18.7034
10min,FGNet,alpine,42.04,09JAN2021:08:10:00,20.5,20.1,19.7,17.3,87,17.99,29.5484,8,1.7,69.27,3.9,0,0.00,0.00,0.00,18.3758,19.3964
10min,FGNet,alpine,42.04,09JAN2021:08:20:00,20.6,20.1,19.8,17.2,87,17.97,29.5916,11,1.4,46.59,2.8,0,0.00,0.00,0.00,18.2948,19.1102
10min,FGNet,alpine,42.04,09JAN2021:08:30:00,20.5,20.2,19.8,17.3,87,17.94,29.606,14,2.1,72.35,3.5,0,0.00,0.00,0.00,18.131,19.6394
10min,FGNet,alpine,42.04,09JAN2021:08:40:00,20.5,20.1,19.6,17.2,87,17.95,29.57,18,1.2,223.2,4.2,0,0.00,0.00,0.00,17.843,18.8258
10min,FGNet,alpine,42.04,09JAN2021:08:50:00,20.5,20.3,20.0,17.3,87,17.91,29.5736,26,1.6,81.2,3.9,0,0.00,0.00,0.00,20.3684,20.8544
10min,FGNet,alpine,42.04,09JAN2021:09:00:00,21.3,21.2,20.7,17.9,87,17.94,29.4926,44,2.0,34.23,4.0,0,0.00,0.00,0.00,20.894,21.4088
10min,FGNet,alpine,42.04,09JAN2021:09:10:00,21.5,21.2,20.9,17.9,86,17.93,29.4764,45,0.9,86.8,3.5,0,0.00,0.00,0.00,21.2972,21.8606
10min,FGNet,alpine,42.04,09JAN2021:09:20:00,22.5,22.3,21.9,18.7,85,17.94,29.4854,51,2.4,83.7,3.3,0,0.00,0.00,0.00,22.3214,22.4816
10min,FGNet,alpine,42.04,09JAN2021:09:30:00,22.5,22.3,22.0,18.5,84,17.93,29.543,82,0.3,42.48,1.5,0,0.00,0.00,0.00,30.0398,27.4046
10min,FGNet,alpine,42.04,09JAN2021:09:40:00,23.4,23.7,23.6,19.1,84,17.92,29.4206,112,2.4,57.6,3.3,0,0.00,0.00,0.00,25.4102,25.3112
10min,FGNet,alpine,42.04,09JAN2021:09:50:00,24.3,24.6,24.5,19.6,82,17.89,29.525,123,2.4,75.78,3.1,0,0.00,0.00,0.00,29.363,27.149
10min,FGNet,alpine,42.04,09JAN2021:10:00:00,25.6,25.9,25.7,20.5,81,17.85,29.4206,124,1.1,61,2.4,0,0.00,0.00,0.00,33.5678,29.7554
10min,FGNet,alpine,42.04,09JAN2021:10:10:00,26.9,27.5,27.1,20.9,78,17.87,29.4566,196,1.3,63.49,2.3,21.67,0.00,0.00,0.00,54.284,39.8714
10min,FGNet,alpine,42.04,09JAN2021:10:20:00,29.0,30.4,30.0,21.0,72,17.85,29.399,378,1.8,229.7,4.0,1.667,0.00,0.00,0.00,51.998,40.1126
10min,FGNet,alpine,42.04,09JAN2021:10:30:00,30.3,30.6,30.4,20.0,65,17.85,29.4116,214,4.1,171.6,6.7,0,0.00,0.00,0.00,43.4174,36.941
10min,FGNet,alpine,42.04,09JAN2021:10:40:00,30.7,31.7,31.0,20.1,64,17.85,29.3504,331,3.4,173.6,6.4,0,0.00,0.00,0.00,51.782,40.6112
10min,FGNet,alpine,42.04,09JAN2021:10:50:00,31.4,32.2,31.7,20.4,63,17.82,29.3594,339,3.0,195.1,4.4,0,0.00,0.00,0.00,52.97,41.3528
10min,FGNet,alpine,42.04,09JAN2021:11:00:00,31.4,32.0,31.9,20.6,64,17.77,29.309,419,3.4,201.6,5.8,0,0.00,0.00,0.00,58.442,44.1212
10min,FGNet,alpine,42.04,09JAN2021:11:10:00,31.4,31.5,31.9,20.5,64,17.73,29.3126,240,2.4,218.1,6.0,0,0.00,0.00,0.00,45.545,38.1398
10min,FGNet,alpine,42.04,09JAN2021:11:20:00,31.4,31.8,32.0,20.5,63,17.78,29.3,314,2.9,155.6,6.0,0,0.00,0.00,0.00,50.594,38.372
10min,FGNet,alpine,42.04,09JAN2021:11:30:00,32.0,33.5,33.4,20.9,63,17.77,29.3396,544,3.4,116.4,5.8,0,0.00,0.00,0.00,56.93,44.3714
10min,FGNet,alpine,42.04,09JAN2021:11:40:00,32.7,33.4,33.5,20.4,60,17.73,29.3036,551,5.2,145.1,9.1,0,0.00,0.00,0.00,57.524,42.9098
10min,FGNet,alpine,42.04,09JAN2021:11:50:00,32.8,33.6,33.9,20.5,60,17.77,29.2856,481,4.9,172.7,6.9,0,0.00,0.00,0.00,50.594,40.343
10min,FGNet,alpine,42.04,09JAN2021:12:00:00,32.6,33.0,33.2,20.3,60,17.75,29.3234,391,5.8,185.6,8.9,0,0.00,0.00,0.00,45.9554,38.3828
10min,FGNet,alpine,42.04,09JAN2021:12:10:00,32.4,33.4,33.8,20.4,61,17.75,29.2874,411,4.8,175.3,7.8,0,0.00,0.00,0.00,56.732,42.2492
10min,FGNet,alpine,42.04,09JAN2021:12:20:00,33.4,34.2,34.8,20.5,59,17.76,29.2766,399,3.5,172.3,6.4,0,0.00,0.00,0.00,53.744,44.249
10min,FGNet,alpine,42.04,09JAN2021:12:30:00,33.4,34.0,34.5,20.6,59,17.75,29.3144,470,4.4,202.3,7.4,0,0.00,0.00,0.00,43.9376,37.769
10min,FGNet,alpine,42.04,09JAN2021:12:40:00,33.7,34.7,35.2,20.9,59,17.74,29.255,531,3.1,179.9,6.5,0,0.00,0.00,0.00,54.32,43.3526
10min,FGNet,alpine,42.04,09JAN2021:12:50:00,33.5,33.8,34.0,21.3,60,17.74,29.2316,348,4.9,218.9,6.2,0,0.00,0.00,0.00,44.4092,37.9184
10min,FGNet,alpine,42.04,09JAN2021:13:00:00,32.6,33.2,33.5,22.2,65,17.74,29.3504,243,5.2,285.4,8.2,0,0.00,0.00,0.00,41.4014,36.9716
10min,FGNet,alpine,42.04,09JAN2021:13:10:00,32.5,33.1,33.3,22.0,65,17.73,29.3756,257,3.7,242.7,6.5,0,0.00,0.00,0.00,40.8182,35.5406
10min,FGNet,alpine,42.04,09JAN2021:13:20:00,33.0,34.1,34.2,22.1,64,17.74,29.2694,379,2.7,174.8,7.3,0,0.00,0.00,0.00,48.704,40.2692
10min,FGNet,alpine,42.04,09JAN2021:13:30:00,33.3,33.6,33.7,22.0,63,17.74,29.291,225,3.5,240.7,5.8,0,0.00,0.00,0.00,41.2628,36.9608
10min,FGNet,alpine,42.04,09JAN2021:13:40:00,33.1,33.5,33.6,21.9,63,17.75,29.264,169,4.2,225.7,7.1,0,0.00,0.00,0.00,37.985,35.0888
10min,FGNet,alpine,42.04,09JAN2021:13:50:00,33.0,33.5,33.5,21.9,63,17.75,29.3324,203,4.1,198.4,6.7,0,0.00,0.00,0.00,39.3836,36.6872
10min,FGNet,alpine,42.04,09JAN2021:14:00:00,33.3,34.4,34.6,22.1,63,17.72,29.282,400,4.9,151.9,8.5,0,0.00,0.00,0.00,49.658,42.7568
10min,FGNet,alpine,42.04,09JAN2021:14:10:00,34.7,35.6,36.1,22.2,60,17.72,29.336,386,4.6,149,9.2,0,0.00,0.00,0.00,41.5418,38.8508
10min,FGNet,alpine,42.04,09JAN2021:14:20:00,34.3,34.7,34.8,22.0,60,17.75,29.408,227,4.3,150.5,9.1,0,0.00,0.00,0.00,40.3916,37.7294
10min,FGNet,alpine,42.04,09JAN2021:14:30:00,34.1,34.3,34.5,22.0,61,17.73,29.4134,187,5.1,151.4,8.7,0,0.00,0.00,0.00,37.6502,35.5892
10min,FGNet,alpine,42.04,09JAN2021:14:40:00,33.6,34.0,34.1,22.1,62,17.78,29.3414,154,5.7,155.5,8.7,0,0.00,0.00,0.00,37.4144,35.5298
10min,FGNet,alpine,42.04,09JAN2021:14:50:00,33.7,34.1,34.2,22.0,62,17.78,29.3756,143,5.1,155.5,8.0,0,0.00,0.00,0.00,37.2578,35.5118
10min,FGNet,alpine,42.04,09JAN2021:15:00:00,33.7,34.0,34.1,21.7,61,17.76,29.3486,132,3.9,181.4,6.4,0,0.00,0.00,0.00,38.7356,36.7196
10min,FGNet,alpine,42.04,09JAN2021:15:10:00,34.0,34.4,34.4,21.5,60,17.76,29.4386,148,3.6,148.9,6.0,0,0.00,0.00,0.00,38.9552,37.067
10min,FGNet,alpine,42.04,09JAN2021:15:20:00,34.2,34.9,34.9,21.7,60,17.72,29.3774,179,3.1,202.7,5.5,0,0.00,0.00,0.00,41.9792,38.8004
10min,FGNet,alpine,42.04,09JAN2021:15:30:00,34.7,35.2,35.3,21.8,59,17.78,29.408,192,3.2,197.1,6.0,0,0.00,0.00,0.00,41.6912,38.7536
10min,FGNet,alpine,42.04,09JAN2021:15:40:00,34.9,35.2,35.2,21.8,58,17.76,29.5106,172,2.9,202.8,4.8,0,0.00,0.00,0.00,42.2492,40.541
10min,FGNet,alpine,42.04,09JAN2021:15:50:00,35.1,35.7,35.8,21.7,58,17.74,29.3774,248,2.9,169,4.9,0,0.00,0.00,0.00,42.2258,40.6562
10min,FGNet,alpine,42.04,09JAN2021:16:00:00,35.3,35.6,35.9,21.5,57,17.76,29.3846,193,2.8,194.3,5.8,0,0.00,0.00,0.00,40.7516,40.5932
10min,FGNet,alpine,42.04,09JAN2021:16:10:00,35.1,35.6,35.7,21.8,58,17.78,29.3864,172,3.7,151.1,5.3,0,0.00,0.00,0.00,38.5376,38.9318
10min,FGNet,alpine,42.04,09JAN2021:16:20:00,35.2,35.4,35.5,21.5,57,17.78,29.435,122,2.7,176.9,5.7,0,0.00,0.00,0.00,37.9418,36.95
10min,FGNet,alpine,42.04,09JAN2021:16:30:00,35.2,35.4,35.3,21.5,57,17.77,29.462,91,0.9,146.9,3.7,0,0.00,0.00,0.00,36.5072,35.9186
10min,FGNet,alpine,42.04,09JAN2021:16:40:00,34.9,35.1,35.1,21.4,57,17.81,29.498,94,2.5,107.5,5.7,0,0.00,0.00,0.00,37.3514,36.0572
10min,FGNet,alpine,42.04,09JAN2021:16:50:00,35.0,35.1,35.1,21.3,57,17.79,29.516,80,2.5,68.09,4.0,0,0.00,0.00,0.00,36.0572,35.5082
10min,FGNet,alpine,42.04,09JAN2021:17:00:00,34.9,34.9,34.8,21.1,57,17.79,29.471,58,3.2,125,6.2,0,0.00,0.00,0.00,34.889,35.5064
10min,FGNet,alpine,42.04,09JAN2021:17:10:00,34.6,34.5,34.4,21.0,57,17.79,29.5286,28,3.8,142.9,7.4,0,0.00,0.00,0.00,34.0592,34.3346
10min,FGNet,alpine,42.04,09JAN2021:17:20:00,34.2,34.2,34.0,21.1,58,17.78,29.57,8,3.4,205.4,5.7,0,0.00,0.00,0.00,33.0422,33.6686
10min,FGNet,alpine,42.04,09JAN2021:17:30:00,34.0,33.9,33.7,20.8,58,17.83,29.4656,2,2.5,255.5,4.0,0,0.00,0.00,0.00,32.3222,32.9486
10min,FGNet,alpine,42.04,09JAN2021:17:40:00,33.5,33.4,33.2,21.1,60,17.85,29.426,1,3.6,274.5,5.7,0,0.00,0.00,0.00,31.406,32.531
10min,FGNet,alpine,42.04,09JAN2021:17:50:00,33.1,32.9,32.8,21.1,61,17.85,29.5394,0,3.6,293.5,7.4,0,0.00,0.00,0.00,31.937,32.486
10min,FGNet,alpine,42.04,09JAN2021:18:00:00,32.7,32.7,32.6,21.1,62,17.83,29.5646,0,3.9,299,6.4,0,0.00,0.00,0.00,31.1144,31.9766
10min,FGNet,alpine,42.04,09JAN2021:18:10:00,32.5,32.5,32.3,21.1,63,17.84,29.6096,0,1.7,228.8,3.7,0,0.00,0.00,0.00,31.5464,32.153
10min,FGNet,alpine,42.04,09JAN2021:18:20:00,32.5,32.4,32.3,21.1,62,17.84,29.4854,0,1.6,105,2.4,0,0.00,0.00,0.00,30.8606,31.604
10min,FGNet,alpine,42.04,09JAN2021:18:30:00,32.5,32.3,32.1,21.0,62,17.86,29.57,0,0.7,273.3,2.3,0,0.00,0.00,0.00,30.0758,31.2332
10min,FGNet,alpine,42.04,09JAN2021:18:40:00,32.2,31.8,31.6,20.9,63,17.85,29.6726,0,0.3,311.2,1.7,0,0.00,0.00,0.00,29.9588,30.9974
10min,FGNet,alpine,42.04,09JAN2021:18:50:00,32.1,31.9,31.7,20.9,63,17.85,29.5736,0,1.2,178.5,2.3,0,0.00,0.00,0.00,29.9192,30.5672
10min,FGNet,alpine,42.04,09JAN2021:19:00:00,31.9,31.2,31.3,20.9,64,17.85,29.5304,0,0.0,129.4,0.0,0,0.00,0.00,0.00,28.5458,29.7428
10min,FGNet,alpine,42.04,09JAN2021:19:10:00,31.2,30.4,30.4,21.3,66,17.86,29.6636,0,0.4,256.2,1.5,0,0.00,0.00,0.00,28.6448,29.7824
10min,FGNet,alpine,42.04,09JAN2021:19:20:00,31.0,30.2,29.9,21.2,67,17.87,29.534,0,1.4,265.8,2.6,0,0.00,0.00,0.00,28.4108,29.5196
10min,FGNet,alpine,42.04,09JAN2021:19:30:00,30.7,29.8,29.7,21.0,67,17.86,29.5826,0,0.3,253.2,2.3,0,0.00,0.00,0.00,27.6638,29.3144
10min,FGNet,alpine,42.04,09JAN2021:19:40:00,30.4,29.8,29.5,20.9,67,17.92,29.6096,0,1.8,260.5,2.6,0,0.00,0.00,0.00,27.0842,28.5116
10min,FGNet,alpine,42.04,09JAN2021:19:50:00,30.0,29.5,29.4,20.7,68,17.88,29.543,0,0.4,212.4,2.6,0,0.00,0.00,0.00,26.8808,27.9842
10min,FGNet,alpine,42.04,09JAN2021:20:00:00,29.7,29.4,29.2,20.7,69,17.9,29.678,0,0.5,141.5,1.9,0,0.00,0.00,0.00,27.0788,28.2992
10min,FGNet,alpine,42.04,09JAN2021:20:10:00,29.5,29.1,28.8,20.4,68,17.87,29.6114,0,1.5,246.1,2.4,0,0.00,0.00,0.00,27.4442,28.4288
10min,FGNet,alpine,42.04,09JAN2021:20:20:00,29.6,29.5,29.1,20.4,68,17.97,29.5844,0,1.1,184.7,2.3,0,0.00,0.00,0.00,28.0652,28.8302
10min,FGNet,alpine,42.04,09JAN2021:20:30:00,29.9,29.6,29.4,20.2,67,17.95,29.6654,0,0.0,21.65,0.0,0,0.00,0.00,0.00,28.0652,28.9094
10min,FGNet,alpine,42.04,09JAN2021:20:40:00,29.8,29.4,29.1,20.4,68,17.93,29.6204,0,0.4,167.8,1.9,0,0.00,0.00,0.00,27.4748,28.4972
10min,FGNet,alpine,42.04,09JAN2021:20:50:00,29.3,28.7,28.6,20.8,70,17.97,29.651,0,0.2,246.3,1.7,0,0.00,0.00,0.00,26.8232,27.5432
10min,FGNet,alpine,42.04,09JAN2021:21:00:00,29.1,28.9,28.6,20.7,70,17.89,29.6024,0,0.4,209.6,2.4,0,0.00,0.00,0.00,27.5126,27.9266
10min,FGNet,alpine,42.04,09JAN2021:21:10:00,29.2,29.1,28.8,20.7,70,17.92,29.669,0,1.8,172.1,2.8,0,0.00,0.00,0.00,26.8826,27.6314
10min,FGNet,alpine,42.04,09JAN2021:21:20:00,29.1,28.9,28.6,20.1,69,17.92,29.7014,0,1.7,190.8,3.0,0,0.00,0.00,0.00,27.356,28.0652
10min,FGNet,alpine,42.04,09JAN2021:21:30:00,29.0,28.8,28.6,19.8,68,17.91,29.588,0,1.0,185.4,2.8,0,0.00,0.00,0.00,27.0698,27.7106
10min,FGNet,alpine,42.04,09JAN2021:21:40:00,28.9,29.1,28.8,19.6,68,17.91,29.6474,0,2.1,131.8,3.9,0,0.00,0.00,0.00,27.356,28.0454
10min,FGNet,alpine,42.04,09JAN2021:21:50:00,29.0,28.7,28.4,19.5,67,17.95,29.6636,0,0.4,242.5,2.4,0,0.00,0.00,0.00,26.0132,27.455
10min,FGNet,alpine,42.04,09JAN2021:22:00:00,28.6,28.0,27.9,19.4,68,17.92,29.66,0,0.1,289.9,1.4,0,0.00,0.00,0.00,25.8368,27.3362
10min,FGNet,alpine,42.04,09JAN2021:22:10:00,28.4,27.8,27.7,19.4,69,17.9,29.741,0,0.1,203.3,1.5,0,0.00,0.00,0.00,26.8826,27.7898
10min,FGNet,alpine,42.04,09JAN2021:22:20:00,28.5,28.4,28.2,19.7,69,17.95,29.696,0,1.2,90.6,2.6,0,0.00,0.00,0.00,26.528,27.4352
10min,FGNet,alpine,42.04,09JAN2021:22:30:00,28.4,27.8,27.6,19.8,70,17.91,29.6564,0,0.9,260,2.1,0,0.00,0.00,0.00,26.33,27.3362
10min,FGNet,alpine,42.04,09JAN2021:22:40:00,28.3,27.6,27.3,19.8,70,17.91,29.642,0,1.7,319.2,3.1,0,0.00,0.00,0.00,26.5478,27.4946
10min,FGNet,alpine,42.04,09JAN2021:22:50:00,28.3,28.2,27.9,19.5,69,17.93,29.7824,0,2.4,322.7,3.3,0,0.00,0.00,0.00,26.7278,27.5558
10min,FGNet,alpine,42.04,09JAN2021:23:00:00,28.3,28.2,27.9,19.7,70,17.96,29.759,0,0.9,212.2,2.3,0,0.00,0.00,0.00,26.5874,27.1202
10min,FGNet,alpine,42.04,09JAN2021:23:10:00,28.3,28.1,27.9,19.7,70,17.92,29.6564,0,0.1,152.7,1.5,0,0.00,0.00,0.00,25.124,26.0042
10min,FGNet,alpine,42.04,09JAN2021:23:20:00,28.1,27.7,27.4,19.7,70,17.97,29.7356,0,0.3,269,2.3,0,0.00,0.00,0.00,26.3318,27.4352
10min,FGNet,alpine,42.04,09JAN2021:23:30:00,28.2,27.8,27.6,19.9,71,18.01,29.6924,0,0.6,323.7,1.7,0,0.00,0.00,0.00,26.0942,26.8826
10min,FGNet,alpine,42.04,09JAN2021:23:40:00,28.1,28.0,27.9,20.1,71,17.95,29.7824,0,0.6,124.8,1.7,0,0.00,0.00,0.00,26.7062,27.5936
10min,FGNet,alpine,42.04,09JAN2021:23:50:00,28.2,28.0,27.8,20.1,71,17.97,29.7104,0,0.4,136.6,1.5,0,0.00,0.00,0.00,25.6892,26.735
10min,FGNet,genola,42.05,09JAN2021:00:00:00,31.7,31.3,30.7,22.7,69,9.04,34.6802,0,2.4,200.1,3.7,0,0.00,0.00,0.00,28.2758,29.5592
10min,FGNet,genola,42.05,09JAN2021:00:10:00,31.0,30.8,29.8,22.3,70,9.03,34.6802,0,4.6,84.8,5.5,0,0.00,0.00,0.00,28.157,29.3306
10min,FGNet,genola,42.05,09JAN2021:00:20:00,31.0,30.7,29.8,22.2,70,9.07,34.6784,0,3.8,320.1,4.9,0,0.00,0.00,0.00,27.167,28.2362
10min,FGNet,genola,42.05,09JAN2021:00:30:00,28.9,28.4,28.1,22.0,75,9.06,34.6784,0,5.4,313.1,7.3,0,0.00,0.00,0.00,25.6388,26.573
10min,FGNet,genola,42.05,09JAN2021:00:40:00,28.0,28.1,27.8,21.8,77,9.01,34.6748,0,5.8,292.4,8.7,0,0.00,0.00,0.00,24.7442,26.2166
10min,FGNet,genola,42.05,09JAN2021:00:50:00,28.0,27.7,27.1,21.6,77,9.1,34.673,0,0.7,319.3,3.3,0,0.00,0.00,0.00,24.0242,25.3616
10min,FGNet,genola,42.05,09JAN2021:01:00:00,28.2,28.2,26.8,21.6,76,9.09,34.6676,0,3.4,79.22,4.8,0,0.00,0.00,0.00,25.1816,26.2652
10min,FGNet,genola,42.05,09JAN2021:01:10:00,28.4,27.6,25.9,21.4,75,9.06,34.6622,0,3.5,44.53,4.6,0,0.00,0.00,0.00,24.4688,25.9034
10min,FGNet,genola,42.05,09JAN2021:01:20:00,27.8,26.7,25.4,21.0,75,9.06,34.6604,0,2.4,301.9,3.7,0,0.00,0.00,0.00,22.7498,24.233
10min,FGNet,genola,42.05,09JAN2021:01:30:00,26.6,26.2,25.4,20.7,78,9.09,34.655,0,2.0,147.5,4.9,0,0.00,0.00,0.00,25.5452,26.4704
10min,FGNet,genola,42.05,09JAN2021:01:40:00,27.9,28.1,27.0,21.6,77,9.03,34.6496,0,4.7,64.34,5.5,0,0.00,0.00,0.00,25.7576,27.1076
10min,FGNet,genola,42.05,09JAN2021:01:50:00,28.3,27.6,26.2,21.2,74,9.06,34.6442,0,1.5,208.1,3.9,0,0.00,0.00,0.00,22.3988,24.9512
10min,FGNet,genola,42.05,09JAN2021:02:00:00,27.8,27.5,26.4,21.2,76,9.08,34.6388,0,0.3,123.8,1.9,0,0.00,0.00,0.00,23.8334,26.1554
10min,FGNet,genola,42.05,09JAN2021:02:10:00,27.7,27.2,26.0,21.2,76,9.02,34.6352,0,3.2,108.6,5.3,0,0.00,0.00,0.00,24.7622,26.276
10min,FGNet,genola,42.05,09JAN2021:02:20:00,27.4,26.9,25.7,20.9,76,9.04,34.6334,0,1.5,82.5,4.8,0,0.00,0.00,0.00,24.5228,25.4408
10min,FGNet,genola,42.05,09JAN2021:02:30:00,28.1,27.4,25.0,21.4,76,9.07,34.6316,0,3.4,22.52,4.8,0,0.00,0.00,0.00,23.684,24.8126
10min,FGNet,genola,42.05,09JAN2021:02:40:00,28.5,27.0,24.5,21.3,74,9.02,34.6298,0,5.3,19.87,6.0,0,0.00,0.00,0.00,25.2014,26.1356
10min,FGNet,genola,42.05,09JAN2021:02:50:00,27.8,26.4,24.9,20.7,74,9.08,34.6298,0,3.5,167.1,5.7,0,0.00,0.00,0.00,22.0352,23.7236
10min,FGNet,genola,42.05,09JAN2021:03:00:00,25.4,25.3,24.7,20.1,80,9.04,34.628,0,3.4,220.2,4.4,0,0.00,0.00,0.00,23.153,24.0836
10min,FGNet,genola,42.05,09JAN2021:03:10:00,25.8,25.8,24.9,20.6,81,9.04,34.628,0,2.7,327.7,4.2,0,0.00,0.00,0.00,21.7328,23.4122
10min,FGNet,genola,42.05,09JAN2021:03:20:00,25.8,25.4,24.6,20.4,80,9.08,34.628,0,0.6,213.9,2.6,0,0.00,0.00,0.00,22.721,24.2456
10min,FGNet,genola,42.05,09JAN2021:03:30:00,26.2,25.5,24.4,20.7,80,9.09,34.628,0,2.1,147.1,3.3,0,0.00,0.00,0.00,22.1,23.207
10min,FGNet,genola,42.05,09JAN2021:03:40:00,25.8,25.7,24.3,20.7,81,9.08,34.628,0,0.8,91.8,3.5,0,0.00,0.00,0.00,24.5498,25.367
10min,FGNet,genola,42.05,09JAN2021:03:50:00,28.0,27.6,25.9,21.7,77,9.09,34.628,0,3.8,42.28,4.8,0,0.00,0.00,0.00,26.8394,27.473
10min,FGNet,genola,42.05,09JAN2021:04:00:00,28.8,28.1,27.0,21.5,74,9.1,34.628,0,3.3,98.7,5.1,0,0.00,0.00,0.00,23.981,25.2878
10min,FGNet,genola,42.05,09JAN2021:04:10:00,27.5,27.6,27.1,21.5,78,9.1,34.628,0,0.3,111.8,2.4,0,0.00,0.00,0.00,26.7962,27.212
10min,FGNet,genola,42.05,09JAN2021:04:20:00,29.4,29.7,28.3,22.2,74,9.11,34.628,0,2.4,47.67,3.7,0,0.00,0.00,0.00,28.9508,29.2856
10min,FGNet,genola,42.05,09JAN2021:04:30:00,30.4,30.1,29.0,22.1,71,9.04,34.628,0,2.8,40.84,4.0,0,0.00,0.00,0.00,28.652,29.1272
10min,FGNet,genola,42.05,09JAN2021:04:40:00,30.3,29.7,28.6,22.1,71,9.05,34.628,0,2.5,31.93,4.0,0,0.00,0.00,0.00,27.059,28.0292
10min,FGNet,genola,42.05,09JAN2021:04:50:00,30.1,28.6,27.3,22.0,72,9.08,34.6262,0,2.4,31.67,3.7,0,0.00,0.00,0.00,25.1618,26.3156
10min,FGNet,genola,42.05,09JAN2021:05:00:00,29.5,28.5,26.9,21.7,72,9.08,34.6244,0,3.5,168,4.4,0,0.00,0.00,0.00,25.6586,26.8304
10min,FGNet,genola,42.05,09JAN2021:05:10:00,29.2,28.3,26.4,21.4,72,9.06,34.6208,0,3.8,30.27,5.3,0,0.00,0.00,0.00,25.718,26.5532
10min,FGNet,genola,42.05,09JAN2021:05:20:00,27.5,26.2,25.3,20.5,75,9.03,34.6226,0,2.9,145.8,4.9,0,0.00,0.00,0.00,23.2016,24.3626
10min,FGNet,genola,42.05,09JAN2021:05:30:00,27.4,27.3,25.6,21.0,77,9.11,34.6118,0,3.5,97,5.3,0,0.00,0.00,0.00,24.4436,25.5596
10min,FGNet,genola,42.05,09JAN2021:05:40:00,28.6,28.0,26.1,21.1,73,9.09,34.6154,0,3.7,60,4.6,0,0.00,0.00,0.00,25.241,26.7116
10min,FGNet,genola,42.05,09JAN2021:05:50:00,28.4,28.2,27.1,21.3,74,9.07,34.6064,0,3.3,112.6,4.9,0,0.00,0.00,0.00,25.8386,27.1274
10min,FGNet,genola,42.05,09JAN2021:06:00:00,29.0,29.2,28.3,21.5,73,9.06,34.5956,0,2.9,210.7,4.8,0,0.00,0.00,0.00,25.142,26.483
10min,FGNet,genola,42.05,09JAN2021:06:10:00,28.1,27.7,27.0,21.3,76,9.11,34.592,0,1.6,324,4.9,0,0.00,0.00,0.00,22.5302,24.2438